FW7889 Weather Reports


Display with metric or nautical units.
time (UTC)temp
F
wind
direction
speed
MPH
gust
MPH
rain 1hr
in
rain 24hr
in
rain mn
in
humidity
%
barometer
mb
20260905140132 61 304 0.0 1.0 0.00 0.00 0.00 95 1068.4
20260905135129 60 300 1.0 1.0 0.00 0.00 0.00 98 1068.4
20260905134128 60 305 0.0 1.0 0.00 0.00 0.00 99 1068.5
20260905133124 59 300 0.0 1.0 0.00 0.00 0.00 99 1068.4
20260905132124 58 291 0.0 0.0 0.00 0.00 0.00 99 1068.8
20260905131120 58 319 1.0 2.0 0.00 0.00 0.00 99 1068.7
20260905130120 58 299 0.0 0.0 0.00 0.00 0.00 99 1068.8
20260905125116 58 297 1.0 1.0 0.00 0.00 0.00 99 1068.8
20260905124114 58 291 0.0 0.0 0.00 0.00 0.00 99 1068.4
20260905123112 57 298 0.0 1.0 0.00 0.00 0.00 99 1068.3
20260905122112 57 282 0.0 0.0 0.00 0.00 0.00 99 1068.1
20260905121108 57 282 0.0 0.0 0.00 0.00 0.00 99 1068.4
20260905120108 57 293 0.0 0.0 0.00 0.00 0.00 99 1068.2
20260905115108 57 312 1.0 1.0 0.00 0.00 0.00 99 1068.1
20260905114106 57 282 1.0 1.0 0.00 0.00 0.00 99 1068.1
20260905113103 57 272 0.0 0.0 0.00 0.00 0.00 99 1067.7
20260905112059 57 283 0.0 0.0 0.00 0.00 0.00 99 1067.4
20260905111059 57 81 3.0 3.0 0.00 0.00 0.00 99 1067.5
20260905110059 57 289 1.0 1.0 0.00 0.00 0.00 99 1067.5
20260905105059 57 284 0.0 0.0 0.00 0.00 0.00 99 1067.2
20260905104054 57 284 0.0 0.0 0.00 0.00 0.00 99 1067.2
20260905103052 56 284 0.0 0.0 0.00 0.00 0.00 99 1067.3
20260905102050 56 280 0.0 0.0 0.00 0.00 0.00 99 1067.3
20260905101046 56 299 0.0 1.0 0.00 0.00 0.00 99 1067.2
20260905100043 56 284 0.0 0.0 0.00 0.00 0.00 99 1067.2
20260905095038 55 284 0.0 0.0 0.00 0.00 0.00 99 1067.1
20260905094038 55 286 0.0 0.0 0.00 0.00 0.00 99 1067.1
20260905093035 54 295 0.0 0.0 0.00 0.00 0.00 99 1067.2
20260905092031 54 298 0.0 1.0 0.00 0.00 0.00 99 1067.2
20260905091030 54 296 0.0 0.0 0.00 0.00 0.00 99 1067.2
20260905090026 55 301 1.0 1.0 0.00 0.00 0.00 99 1067.1
20260905085020 55 286 0.0 0.0 0.00 0.00 0.00 99 1067.2
20260905084020 55 287 0.0 0.0 0.00 0.00 0.00 99 1067.2
20260905083018 55 284 0.0 0.0 0.00 0.00 0.00 99 1067.2
20260905082015 55 284 0.0 0.0 0.00 0.00 0.00 99 1067.1
20260905081014 55 285 0.0 0.0 0.00 0.00 0.00 99 1067.1
20260905080009 55 285 0.0 0.0 0.00 0.00 0.00 99 1067.5
20260905075008 55 286 0.0 0.0 0.00 0.00 0.00 99 1067.4
20260905074005 55 286 0.0 0.0 0.00 0.00 0.00 99 1067.3
20260905073001 55 286 0.0 0.0 0.00 0.00 0.00 99 1067.1
20260905071957 55 289 0.0 0.0 0.00 0.00 0.00 99 1067.1
20260905070953 56 312 0.0 0.0 0.00 0.00 0.00 99 1067.3
20260905065949 55 284 0.0 0.0 0.00 0.00 0.00 99 1067.4
20260905064949 55 289 0.0 0.0 0.00 0.00 0.00 99 1067.4
20260905063944 54 287 0.0 0.0 0.00 0.00 0.00 99 1067.4
20260905062941 55 284 0.0 0.0 0.00 0.00 0.00 99 1067.5
20260905061936 55 284 0.0 0.0 0.00 0.00 0.00 99 1067.4
20260905060935 55 284 0.0 0.0 0.00 0.00 0.00 99 1067.2
20260905055931 56 284 0.0 0.0 0.00 0.00 0.00 99 1067.3
20260905054931 55 284 0.0 0.0 0.00 0.00 0.00 99 1067.5
20260905053926 56 287 0.0 0.0 0.00 0.00 0.00 99 1067.6
20260905052923 56 284 0.0 0.0 0.00 0.00 0.00 99 1067.4
20260905051922 57 284 0.0 0.0 0.00 0.00 0.00 99 1067.6
20260905050921 57 287 0.0 0.0 0.00 0.00 0.00 99 1067.6
20260905045918 57 289 0.0 0.0 0.00 0.00 0.00 99 1067.7
20260905044915 57 298 0.0 0.0 0.00 0.00 0.00 99 1067.6
20260905043914 58 289 0.0 0.0 0.00 0.00 0.00 99 1067.8
20260905042914 58 286 0.0 0.0 0.00 0.00 0.00 99 1067.9
20260905041910 59 293 0.0 0.0 0.00 0.00 0.00 99 1067.5
20260905040906 59 292 0.0 0.0 0.00 0.00 0.00 99 1067.7
20260905035905 60 284 0.0 0.0 0.00 0.00 0.00 99 1067.4
20260905034903 60 283 0.0 0.0 0.00 0.00 0.00 99 1067.5
20260905033903 61 284 0.0 0.0 0.00 0.00 0.00 99 1067.5
20260905032904 61 284 0.0 0.0 0.00 0.00 0.00 99 1067.3
20260905031900 61 284 0.0 0.0 0.00 0.00 0.00 99 1067.4
20260905030857 61 285 0.0 0.0 0.00 0.00 0.00 99 1067.7
20260905025858 61 284 0.0 0.0 0.00 0.00 0.00 99 1067.7
20260905024856 62 284 0.0 0.0 0.00 0.00 0.00 99 1067.8
20260905023851 62 284 0.0 0.0 0.00 0.00 0.00 99 1067.7
20260905022851 62 284 0.0 0.0 0.00 0.00 0.00 99 1068.0
20260905021847 62 285 0.0 0.0 0.00 0.00 0.00 99 1068.0
20260905020843 62 284 0.0 0.0 0.00 0.00 0.00 99 1067.8
20260905015843 62 284 0.0 0.0 0.00 0.00 0.00 99 1067.6
20260905014842 62 284 0.0 0.0 0.00 0.00 0.00 99 1067.9
20260905013838 62 287 0.0 0.0 0.00 0.00 0.00 99 1067.8
20260905012834 62 288 0.0 0.0 0.00 0.00 0.00 99 1067.9
20260905011833 62 295 0.0 0.0 0.00 0.00 0.00 99 1067.7
20260905010828 63 295 0.0 0.0 0.00 0.00 0.00 99 1067.9
20260905005825 63 289 0.0 1.0 0.00 0.00 0.00 99 1068.1
20260905004821 63 295 1.0 1.0 0.00 0.00 0.00 99 1068.1
20260905003817 63 295 0.0 1.0 0.00 0.00 0.00 99 1068.2
20260905002814 63 285 0.0 0.0 0.00 0.00 0.00 99 1067.7
20260905001809 63 285 1.0 1.0 0.00 0.00 0.00 99 1067.8
20260905000804 64 276 0.0 1.0 0.00 0.00 0.00 97 1067.7
20260904235800 64 280 0.0 0.0 0.00 0.00 0.00 94 1067.5
20260904234756 64 279 0.0 0.0 0.00 0.00 0.00 93 1067.3
20260904233753 66 283 0.0 0.0 0.00 0.00 0.00 93 1067.5
20260904232751 66 284 0.0 0.0 0.00 0.00 0.00 90 1067.4
20260904231748 66 286 0.0 0.0 0.00 0.00 0.00 88 1067.4
20260904230744 67 295 0.0 0.0 0.00 0.00 0.00 87 1067.3
20260904225743 67 295 0.0 0.0 0.00 0.00 0.00 87 1067.3
20260904224742 67 286 0.0 0.0 0.00 0.00 0.00 87 1067.0
20260904223737 67 292 0.0 0.0 0.00 0.00 0.00 87 1067.1
20260904222734 67 305 1.0 1.0 0.00 0.00 0.00 87 1067.1
20260904221735 67 301 1.0 1.0 0.00 0.00 0.00 86 1067.4
20260904220730 68 313 1.0 2.0 0.00 0.00 0.00 85 1067.1
20260904215731 68 326 2.0 2.0 0.00 0.00 0.00 84 1067.2
20260904214727 68 333 2.0 2.0 0.00 0.00 0.00 83 1067.2
20260904213727 69 300 2.0 2.0 0.00 0.00 0.00 81 1067.2
20260904212724 69 333 3.0 5.0 0.00 0.00 0.00 80 1067.3
20260904211725 69 299 1.0 1.0 0.00 0.00 0.00 81 1067.3
20260904210720 69 311 1.0 2.0 0.00 0.00 0.00 79 1067.2
20260904205717 69 355 3.0 3.0 0.00 0.00 0.00 77 1067.1
20260904204715 70 334 3.0 3.0 0.00 0.00 0.00 77 1067.3
20260904203713 70 285 2.0 3.0 0.00 0.00 0.00 77 1067.3
20260904202710 71 319 2.0 2.0 0.00 0.00 0.00 74 1067.3
20260904201707 71 326 2.0 2.0 0.00 0.00 0.00 75 1067.4
20260904200708 71 273 0.0 1.0 0.00 0.00 0.00 75 1067.5
20260904195707 71 331 2.0 2.0 0.00 0.00 0.00 73 1067.5
20260904194707 73 42 3.0 3.0 0.00 0.00 0.00 68 1067.5
20260904193703 72 318 2.0 2.0 0.00 0.00 0.00 70 1067.5
20260904192658 71 313 2.0 2.0 0.00 0.00 0.00 68 1067.5
20260904191656 71 323 3.0 3.0 0.00 0.00 0.00 69 1067.4
20260904190654 72 320 2.0 3.0 0.00 0.00 0.00 70 1067.2
20260904185653 71 299 1.0 2.0 0.00 0.00 0.00 73 1067.6
20260904184651 73 340 2.0 2.0 0.00 0.00 0.00 71 1067.5
20260904183649 73 316 3.0 5.0 0.00 0.00 0.00 66 1067.7
20260904182644 73 326 3.0 3.0 0.00 0.00 0.00 70 1067.9
20260904181641 74 324 1.0 2.0 0.00 0.00 0.00 69 1067.9
20260904180636 74 337 4.0 5.0 0.00 0.00 0.00 68 1067.8
20260904175636 72 304 1.0 2.0 0.00 0.00 0.00 70 1068.1
20260904174635 73 327 5.0 6.0 0.00 0.00 0.00 67 1067.9
20260904173632 73 326 2.0 2.0 0.00 0.00 0.00 70 1067.9
20260904172630 71 315 1.0 2.0 0.00 0.00 0.00 69 1068.1
20260904171630 71 307 0.0 1.0 0.00 0.00 0.00 74 1068.3
20260904170627 71 325 2.0 2.0 0.00 0.00 0.00 72 1068.2
20260904165627 71 342 2.0 3.0 0.00 0.00 0.00 75 1068.3
20260904164627 71 47 2.0 2.0 0.00 0.00 0.00 75 1068.1
20260904163624 71 324 2.0 3.0 0.00 0.00 0.00 74 1068.4
20260904162619 71 331 3.0 3.0 0.00 0.00 0.00 72 1068.3
20260904161615 70 305 1.0 1.0 0.00 0.00 0.00 78 1068.7
20260904160612 71 318 2.0 2.0 0.00 0.00 0.00 74 1068.3
20260904155607 70 72 3.0 3.0 0.00 0.00 0.00 77 1068.3
20260904154607 70 41 2.0 3.0 0.00 0.00 0.00 75 1068.4
20260904153608 70 294 1.0 1.0 0.00 0.00 0.00 77 1068.5
20260904152605 70 324 4.0 6.0 0.00 0.00 0.00 76 1068.5
20260904151601 69 131 2.0 3.0 0.00 0.00 0.00 80 1068.7
20260904150601 68 324 3.0 3.0 0.00 0.00 0.00 82 1068.9
20260904145600 68 336 2.0 5.0 0.00 0.00 0.00 84 1068.8
20260904144557 68 316 1.0 2.0 0.00 0.00 0.00 85 1068.8
20260904143555 68 326 2.0 2.0 0.00 0.00 0.00 86 1069.1
20260904142553 68 336 1.0 1.0 0.00 0.00 0.00 85 1069.0
20260904141549 68 338 0.0 0.0 0.00 0.00 0.00 88 1069.0